W5CGC Weather Reports


time (UTC)temp
C
wind
direction
speed
KPH
gust
KPH
rain 1hr
cm
rain 24hr
cm
rain mn
cm
humidity
%
barometer
mb
20260510133037 20 0 0.0 4.8 0.00 0.00 0.00 59 1014.7
20260510131532 20 185 0.0 4.8 0.00 0.00 0.00 59 1014.7
20260510130039 20 172 0.0 6.4 0.00 0.00 0.00 59 1014.5
20260510124541 20 53 0.0 3.2 0.00 0.00 0.00 60 1014.1
20260510123038 20 153 0.0 4.8 0.00 0.00 0.00 61 1013.9
20260510121537 20 174 0.0 4.8 0.00 0.00 0.00 61 1013.7
20260510120037 20 0 0.0 1.6 0.00 0.00 0.00 61 1013.6
20260510114532 20 0 0.0 6.4 0.00 0.00 0.00 62 1013.3
20260510113034 20 172 0.0 3.2 0.00 0.00 0.00 63 1013.4
20260510111543 20 0 0.0 6.4 0.00 0.00 0.00 62 1013.5
20260510110033 20 187 0.0 6.4 0.00 0.00 0.00 61 1013.3
20260510104543 20 250 1.6 6.4 0.00 0.00 0.00 61 1013.5
20260510103035 20 209 3.2 8.0 0.00 0.00 0.00 60 1013.1
20260510101536 20 198 4.8 12.9 0.00 0.00 0.00 56 1013.2
20260510100032 21 144 4.8 11.3 0.00 0.00 0.00 56 1013.2
20260510094533 21 173 3.2 8.0 0.00 0.00 0.00 58 1013.1
20260510093033 21 169 4.8 16.1 0.00 0.00 0.00 58 1012.4
20260510091539 22 171 1.6 14.5 0.00 0.00 0.00 59 1012.1
20260510090036 22 0 0.0 6.4 0.00 0.00 0.00 62 1011.7
20260510084547 23 0 0.0 4.8 0.00 0.00 0.00 66 1011.5
20260510083039 23 0 0.0 1.6 0.00 0.00 0.00 65 1011.6
20260510081547 22 0 0.0 3.2 0.00 0.00 0.00 65 1011.4
20260510080037 22 0 0.0 0.0 0.00 0.00 0.00 64 1011.4
20260510074538 23 0 0.0 0.0 0.00 0.00 0.00 62 1010.5
20260510073046 23 0 0.0 0.0 0.00 0.00 0.00 60 1010.3
20260510071535 23 0 0.0 0.0 0.00 0.00 0.00 60 1010.0
20260510070037 23 0 0.0 4.8 0.00 0.00 0.00 59 1009.7
20260510064535 24 224 1.6 9.7 0.00 0.00 0.00 57 1009.5
20260510063038 24 48 3.2 11.3 0.00 0.00 0.00 56 1010.6
20260510061545 23 97 3.2 9.7 0.00 0.00 0.00 56 1011.4
20260510060042 23 169 1.6 8.0 0.00 0.00 0.00 57 1011.5
20260510054532 23 0 0.0 0.0 0.00 0.00 0.00 56 1009.4
20260510053035 22 0 0.0 0.0 0.00 0.00 0.00 56 1008.6
20260510051532 23 0 0.0 0.0 0.00 0.00 0.00 54 1008.5
20260510050039 23 0 0.0 0.0 0.00 0.00 0.00 53 1008.4
20260510044537 23 0 0.0 3.2 0.00 0.00 0.00 51 1007.9
20260510043035 23 89 0.0 4.8 0.00 0.00 0.00 52 1007.9
20260510041538 23 0 0.0 0.0 0.00 0.00 0.00 52 1008.2
20260510040034 23 122 0.0 3.2 0.00 0.00 0.00 51 1008.3
20260510034538 23 0 0.0 0.0 0.00 0.00 0.00 52 1008.5
20260510033039 23 0 0.0 1.6 0.00 0.00 0.00 52 1008.5
20260510031551 24 0 0.0 0.0 0.00 0.00 0.00 50 1008.7
20260510030037 25 0 0.0 0.0 0.00 0.00 0.00 50 1008.6
20260510024537 25 0 0.0 0.0 0.00 0.00 0.00 50 1008.6
20260510023043 25 0 0.0 0.0 0.00 0.00 0.00 48 1008.5
20260510021539 25 0 0.0 1.6 0.00 0.00 0.00 48 1008.3
20260510020035 26 0 0.0 1.6 0.00 0.00 0.00 50 1008.0
20260510014536 26 0 0.0 0.0 0.00 0.00 0.00 50 1007.9
20260510013040 26 0 0.0 0.0 0.00 0.00 0.00 51 1007.8
20260510011538 27 0 0.0 0.0 0.00 0.00 0.00 48 1007.5
20260510010038 27 0 0.0 1.6 0.00 0.00 0.00 47 1007.3
20260510004538 27 139 0.0 1.6 0.00 0.00 0.00 43 1007.3
20260510003039 28 139 0.0 0.0 0.00 0.00 0.00 47 1007.3
20260510001537 29 0 0.0 0.0 0.00 0.00 0.00 41 1007.3
20260510000038 31 0 0.0 0.0 0.00 0.00 0.00 37 1007.2
20260509234538 32 0 0.0 0.0 0.00 0.00 0.00 32 1007.3
20260509233034 31 0 0.0 0.0 0.00 0.00 0.00 35 1007.5
20260509231534 31 0 0.0 1.6 0.00 0.00 0.00 33 1007.5
20260509230032 31 0 0.0 3.2 0.00 0.00 0.00 32 1007.5
20260509224539 33 0 0.0 0.0 0.00 0.00 0.00 30 1007.5
20260509223036 32 94 0.0 3.2 0.00 0.00 0.00 28 1007.6
20260509221535 32 32 0.0 3.2 0.00 0.00 0.00 30 1007.6
20260509220038 31 79 1.6 4.8 0.00 0.00 0.00 34 1007.7
20260509214536 32 276 1.6 8.0 0.00 0.00 0.00 32 1007.7
20260509213034 31 0 1.6 6.4 0.00 0.00 0.00 35 1007.8
20260509211544 32 0 0.0 3.2 0.00 0.00 0.00 34 1008.0
20260509210039 31 169 1.6 4.8 0.00 0.00 0.00 36 1008.2
20260509204537 31 181 0.0 4.8 0.00 0.00 0.00 35 1008.3
20260509203033 30 164 1.6 4.8 0.00 0.00 0.00 38 1008.5
20260509201532 31 85 0.0 4.8 0.00 0.00 0.00 37 1008.7
20260509200043 30 0 1.6 6.4 0.00 0.00 0.00 39 1008.8
20260509194538 31 108 0.0 4.8 0.00 0.00 0.00 40 1009.1
20260509193037 31 0 0.0 3.2 0.00 0.00 0.00 42 1009.2
20260509191535 31 135 0.0 4.8 0.00 0.00 0.00 40 1009.2
20260509190033 31 173 1.6 3.2 0.00 0.00 0.00 35 1009.4
20260509184554 31 0 0.0 3.2 0.00 0.00 0.00 36 1009.5
20260509183039 30 0 0.0 4.8 0.00 0.00 0.00 39 1009.6
20260509181543 30 148 0.0 3.2 0.00 0.00 0.00 40 1009.8
20260509180038 30 154 0.0 3.2 0.00 0.00 0.00 38 1009.9
20260509174536 30 0 0.0 3.2 0.00 0.00 0.00 38 1010.1
20260509173035 30 160 0.0 3.2 0.00 0.00 0.00 40 1010.1
20260509171539 29 169 1.6 6.4 0.00 0.00 0.00 42 1010.3
20260509170032 29 103 0.0 3.2 0.00 0.00 0.00 41 1010.5
20260509164537 28 155 0.0 8.0 0.00 0.00 0.00 42 1010.5
20260509163044 28 115 0.0 6.4 0.00 0.00 0.00 41 1010.5
20260509161534 27 134 1.6 9.7 0.00 0.00 0.00 42 1010.4
20260509160032 27 143 0.0 6.4 0.00 0.00 0.00 46 1010.4
20260509154544 26 152 1.6 4.8 0.00 0.00 0.00 56 1010.3
20260509153033 25 103 1.6 4.8 0.00 0.00 0.00 62 1010.3
20260509151538 25 0 0.0 4.8 0.00 0.00 0.00 63 1010.4
20260509150037 24 165 0.0 4.8 0.00 0.00 0.00 63 1010.4
20260509144532 23 0 0.0 6.4 0.00 0.00 0.00 67 1010.4
20260509143045 23 0 0.0 1.6 0.00 0.00 0.00 69 1010.4
20260509141541 22 0 0.0 1.6 0.00 0.00 0.00 75 1010.3
20260509140040 22 0 0.0 1.6 0.00 0.00 0.00 78 1010.5
20260509134537 21 0 0.0 1.6 0.00 0.00 0.00 79 1010.3